DLH4YV LOWW-EDDM

Flight info

Callsign DLH4YV
Flight time 0h 36m
Altitude 28000
Route SOVIL DCT SITNI DCT BAGSI DCT MATIG DCT AMADI Q113 NAPSA NAPSA1B
Aircraft A20N/M-SDE2E3FGHIRWXY/LB1

Departure

Time 2026-05-07 13:04
Airport Vienna International Airport (LOWW)

Arrival

Time 2026-05-07 13:40
Airport Munich Airport (EDDM)
Time Latitude Longitude Altitude Speed Heading
2026-05-07 12:43 48.11731 16.56739 602 ft 0 kts 26°
2026-05-07 12:56 48.11713 16.56725 603 ft 3 kts 26°
2026-05-07 12:56 48.11692 16.56711 621 ft 3 kts 26°
2026-05-07 12:56 48.11674 16.56690 617 ft 3 kts 58°
2026-05-07 12:57 48.11668 16.56673 617 ft 3 kts 82°
2026-05-07 12:57 48.11670 16.56642 622 ft 3 kts 112°
2026-05-07 12:57 48.11676 16.56620 619 ft 0 kts 116°
2026-05-07 13:00 48.11671 16.56634 605 ft 3 kts 116°
2026-05-07 13:00 48.11656 16.56681 617 ft 6 kts 115°
2026-05-07 13:00 48.11633 16.56755 608 ft 9 kts 115°
2026-05-07 13:00 48.11602 16.56853 606 ft 11 kts 115°
2026-05-07 13:01 48.11564 16.56968 614 ft 14 kts 117°
2026-05-07 13:01 48.11517 16.57107 621 ft 16 kts 116°
2026-05-07 13:01 48.11470 16.57253 621 ft 15 kts 115°
2026-05-07 13:01 48.11411 16.57385 616 ft 15 kts 161°
2026-05-07 13:02 48.11324 16.57339 620 ft 12 kts 206°
2026-05-07 13:02 48.11249 16.57284 623 ft 11 kts 206°
2026-05-07 13:02 48.11188 16.57240 621 ft 8 kts 205°
2026-05-07 13:02 48.11133 16.57201 632 ft 9 kts 206°
2026-05-07 13:03 48.11069 16.57145 625 ft 12 kts 227°
2026-05-07 13:03 48.11075 16.57042 631 ft 7 kts 294°
2026-05-07 13:03 48.11103 16.56955 631 ft 18 kts 296°
2026-05-07 13:03 48.11250 16.56503 626 ft 80 kts 296°
2026-05-07 13:04 48.11570 16.55522 622 ft 127 kts 296°
2026-05-07 13:04 48.11992 16.54226 907 ft 138 kts 296°
2026-05-07 13:04 48.12305 16.52875 1364 ft 141 kts 272°
2026-05-07 13:04 48.12045 16.51444 1744 ft 147 kts 237°
2026-05-07 13:05 48.11506 16.50150 2220 ft 147 kts 236°
2026-05-07 13:05 48.10957 16.48830 2583 ft 157 kts 236°
2026-05-07 13:05 48.10362 16.47375 2910 ft 170 kts 236°
2026-05-07 13:05 48.09724 16.45785 3270 ft 188 kts 237°
2026-05-07 13:06 48.09000 16.44047 3681 ft 207 kts 233°
2026-05-07 13:06 48.08122 16.42162 4100 ft 234 kts 232°
2026-05-07 13:06 48.07103 16.40117 4674 ft 256 kts 231°
2026-05-07 13:06 48.05991 16.37947 5443 ft 267 kts 231°
2026-05-07 13:07 48.04856 16.35732 6442 ft 271 kts 232°
2026-05-07 13:07 48.03760 16.33427 7426 ft 272 kts 243°
2026-05-07 13:07 48.03243 16.30751 8535 ft 270 kts 264°
2026-05-07 13:07 48.03313 16.27918 9426 ft 278 kts 274°
2026-05-07 13:08 48.03447 16.25000 10268 ft 284 kts 271°
2026-05-07 13:08 48.03515 16.21949 10731 ft 305 kts 270°
2026-05-07 13:08 48.03552 16.18666 11083 ft 326 kts 269°
2026-05-07 13:08 48.03591 16.15251 11836 ft 331 kts 269°
2026-05-07 13:09 48.03638 16.11852 12691 ft 335 kts 269°
2026-05-07 13:09 48.03692 16.08341 13584 ft 337 kts 269°
2026-05-07 13:09 48.03748 16.04831 14316 ft 341 kts 269°
2026-05-07 13:09 48.03806 16.01290 15108 ft 342 kts 269°
2026-05-07 13:10 48.03865 15.97703 15881 ft 345 kts 268°
2026-05-07 13:10 48.03921 15.94143 16643 ft 348 kts 268°
2026-05-07 13:10 48.03977 15.90496 17358 ft 353 kts 268°
2026-05-07 13:10 48.04032 15.86780 17965 ft 358 kts 268°
2026-05-07 13:11 48.04087 15.83078 18644 ft 361 kts 268°
2026-05-07 13:11 48.04142 15.79282 19308 ft 364 kts 267°
2026-05-07 13:11 48.04195 15.75524 19951 ft 366 kts 266°
2026-05-07 13:11 48.04247 15.71680 20541 ft 372 kts 266°
2026-05-07 13:12 48.04296 15.67716 20725 ft 387 kts 266°
2026-05-07 13:12 48.04345 15.63652 20876 ft 402 kts 266°
2026-05-07 13:12 48.04395 15.59390 21027 ft 416 kts 266°
2026-05-07 13:12 48.04448 15.55041 21335 ft 425 kts 266°
2026-05-07 13:13 48.04505 15.50607 21864 ft 427 kts 266°
2026-05-07 13:13 48.04558 15.46126 22379 ft 431 kts 266°
2026-05-07 13:13 48.04592 15.43060 22667 ft 434 kts 266°
2026-05-07 13:13 48.04633 15.39285 23108 ft 436 kts 266°
2026-05-07 13:14 48.04686 15.34733 23634 ft 438 kts 266°
2026-05-07 13:14 48.04758 15.30173 23891 ft 439 kts 267°
2026-05-07 13:14 48.04836 15.25670 23967 ft 440 kts 267°
2026-05-07 13:14 48.04914 15.21074 23973 ft 440 kts 266°
2026-05-07 13:15 48.04987 15.16495 23974 ft 440 kts 266°
2026-05-07 13:15 48.05059 15.11911 23971 ft 440 kts 266°
2026-05-07 13:15 48.05124 15.07392 23973 ft 440 kts 266°
2026-05-07 13:15 48.05186 15.02798 23988 ft 441 kts 267°
2026-05-07 13:16 48.05244 14.98190 23971 ft 444 kts 267°
2026-05-07 13:16 48.05302 14.93622 23972 ft 443 kts 267°
2026-05-07 13:16 48.05361 14.89023 23970 ft 443 kts 267°
2026-05-07 13:16 48.05418 14.84381 23970 ft 444 kts 267°
2026-05-07 13:17 48.05470 14.79756 23970 ft 443 kts 267°
2026-05-07 13:17 48.05509 14.75205 23972 ft 443 kts 267°
2026-05-07 13:17 48.05543 14.70592 23972 ft 443 kts 267°
2026-05-07 13:17 48.05575 14.65980 23971 ft 443 kts 267°
2026-05-07 13:18 48.05605 14.61374 23973 ft 443 kts 267°
2026-05-07 13:18 48.05634 14.56781 23981 ft 440 kts 267°
2026-05-07 13:18 48.05663 14.52198 23979 ft 440 kts 267°
2026-05-07 13:18 48.05690 14.47672 23980 ft 440 kts 267°
2026-05-07 13:19 48.05716 14.43079 23984 ft 441 kts 267°
2026-05-07 13:19 48.05741 14.38489 23985 ft 440 kts 267°
2026-05-07 13:19 48.05763 14.33893 23986 ft 441 kts 267°
2026-05-07 13:19 48.05783 14.29363 23988 ft 440 kts 267°
2026-05-07 13:20 48.05802 14.24775 23989 ft 441 kts 267°
2026-05-07 13:20 48.05819 14.20231 23990 ft 441 kts 267°
2026-05-07 13:20 48.05833 14.15613 23999 ft 440 kts 268°
2026-05-07 13:20 48.05844 14.11038 23981 ft 438 kts 268°
2026-05-07 13:21 48.05855 14.06521 23986 ft 439 kts 268°
2026-05-07 13:21 48.05864 14.01925 23991 ft 439 kts 268°
2026-05-07 13:21 48.05873 13.97400 23987 ft 439 kts 268°
2026-05-07 13:21 48.05879 13.92818 23991 ft 439 kts 268°
2026-05-07 13:22 48.05883 13.88298 23994 ft 439 kts 268°
2026-05-07 13:22 48.06014 13.83695 23990 ft 441 kts 272°
2026-05-07 13:22 48.06271 13.79126 23996 ft 441 kts 272°
2026-05-07 13:22 48.06509 13.74593 23996 ft 441 kts 272°
2026-05-07 13:23 48.06762 13.70005 23997 ft 441 kts 273°
2026-05-07 13:23 48.07029 13.65427 24001 ft 441 kts 273°
2026-05-07 13:23 48.07301 13.60974 23915 ft 430 kts 273°
2026-05-07 13:23 48.07573 13.56565 23591 ft 419 kts 273°
2026-05-07 13:24 48.07836 13.52291 23307 ft 405 kts 273°
2026-05-07 13:24 48.08088 13.48194 23030 ft 392 kts 273°
2026-05-07 13:24 48.08335 13.44112 22752 ft 393 kts 273°
2026-05-07 13:24 48.08578 13.40049 22480 ft 394 kts 273°
2026-05-07 13:25 48.08821 13.35962 22207 ft 392 kts 273°
2026-05-07 13:25 48.09061 13.31937 21939 ft 390 kts 273°
2026-05-07 13:25 48.09296 13.27925 21680 ft 388 kts 274°
2026-05-07 13:25 48.09531 13.23915 21379 ft 385 kts 274°
2026-05-07 13:26 48.09686 13.21259 21071 ft 383 kts 274°
2026-05-07 13:26 48.09991 13.16023 20301 ft 379 kts 274°
2026-05-07 13:26 48.10142 13.13421 19901 ft 377 kts 274°
2026-05-07 13:26 48.10365 13.09536 19078 ft 371 kts 273°
2026-05-07 13:27 48.10585 13.05701 18195 ft 368 kts 273°
2026-05-07 13:27 48.10943 13.01951 17263 ft 364 kts 283°
2026-05-07 13:27 48.11806 12.98383 16354 ft 361 kts 289°
2026-05-07 13:27 48.12727 12.94921 15728 ft 356 kts 289°
2026-05-07 13:28 48.13656 12.91486 15195 ft 352 kts 290°
2026-05-07 13:28 48.14573 12.88139 14806 ft 345 kts 290°
2026-05-07 13:28 48.15474 12.84877 14455 ft 330 kts 290°
2026-05-07 13:28 48.16326 12.81802 14093 ft 316 kts 290°
2026-05-07 13:29 48.17155 12.78807 13721 ft 303 kts 290°
2026-05-07 13:29 48.17943 12.75955 13313 ft 292 kts 290°
2026-05-07 13:29 48.18706 12.73184 12836 ft 284 kts 290°
2026-05-07 13:29 48.19451 12.70471 12369 ft 283 kts 290°
2026-05-07 13:30 48.20198 12.67750 11971 ft 280 kts 290°
2026-05-07 13:30 48.20938 12.65050 11594 ft 278 kts 290°
2026-05-07 13:30 48.21671 12.62376 11215 ft 276 kts 290°
2026-05-07 13:30 48.22401 12.59712 10817 ft 274 kts 290°
2026-05-07 13:31 48.23116 12.57099 10439 ft 273 kts 290°
2026-05-07 13:31 48.23835 12.54466 10173 ft 268 kts 290°
2026-05-07 13:31 48.24541 12.51880 10052 ft 273 kts 290°
2026-05-07 13:31 48.25271 12.49204 9889 ft 273 kts 290°
2026-05-07 13:32 48.25978 12.46609 9637 ft 269 kts 290°
2026-05-07 13:32 48.26687 12.44006 9255 ft 268 kts 290°
2026-05-07 13:32 48.27393 12.41409 8815 ft 267 kts 290°
2026-05-07 13:32 48.28088 12.38849 8412 ft 266 kts 290°
2026-05-07 13:33 48.28775 12.36316 8021 ft 264 kts 290°
2026-05-07 13:33 48.29467 12.33767 7657 ft 261 kts 290°
2026-05-07 13:33 48.30155 12.31223 7252 ft 262 kts 290°
2026-05-07 13:33 48.30840 12.28684 6960 ft 259 kts 290°
2026-05-07 13:34 48.31511 12.26200 6604 ft 258 kts 291°
2026-05-07 13:34 48.32846 12.21252 5890 ft 254 kts 291°
2026-05-07 13:34 48.33513 12.18783 5505 ft 252 kts 290°
2026-05-07 13:35 48.34173 12.16328 5077 ft 253 kts 291°
2026-05-07 13:35 48.34818 12.13922 4874 ft 245 kts 291°
2026-05-07 13:35 48.35442 12.11592 4663 ft 238 kts 290°
2026-05-07 13:35 48.36051 12.09279 4374 ft 235 kts 290°
2026-05-07 13:36 48.36407 12.06944 4124 ft 229 kts 271°
2026-05-07 13:36 48.36372 12.04583 4019 ft 220 kts 265°
2026-05-07 13:36 48.36214 12.02343 3962 ft 214 kts 265°
2026-05-07 13:36 48.36036 12.00171 3922 ft 202 kts 263°
2026-05-07 13:37 48.35841 11.98147 3840 ft 193 kts 263°
2026-05-07 13:37 48.35703 11.96151 3634 ft 188 kts 265°
2026-05-07 13:37 48.35566 11.94217 3446 ft 181 kts 265°
2026-05-07 13:37 48.35420 11.92397 3197 ft 171 kts 265°
2026-05-07 13:38 48.35281 11.90700 2932 ft 155 kts 264°
2026-05-07 13:38 48.35161 11.89190 2711 ft 138 kts 265°
2026-05-07 13:38 48.35054 11.87769 2499 ft 134 kts 265°
2026-05-07 13:38 48.34931 11.86402 2314 ft 132 kts 264°
2026-05-07 13:39 48.34820 11.84998 2108 ft 135 kts 266°
2026-05-07 13:39 48.34712 11.83598 1933 ft 133 kts 267°
2026-05-07 13:39 48.34608 11.82220 1772 ft 135 kts 268°
2026-05-07 13:39 48.34504 11.80829 1584 ft 134 kts 267°
2026-05-07 13:40 48.34396 11.79442 1465 ft 126 kts 266°
2026-05-07 13:40 48.34326 11.78477 1468 ft 50 kts 264°
2026-05-07 13:40 48.34306 11.78079 1469 ft 34 kts 278°
2026-05-07 13:40 48.34362 11.77839 1466 ft 16 kts 295°
2026-05-07 13:41 48.34412 11.77676 1457 ft 19 kts 294°
2026-05-07 13:41 48.34444 11.77561 1462 ft 0 kts 292°
2026-05-07 13:41 48.34447 11.77550 1466 ft 2 kts 292°
2026-05-07 13:41 48.34464 11.77492 1467 ft 12 kts 298°
2026-05-07 13:42 48.34584 11.77429 1462 ft 22 kts 358°
2026-05-07 13:42 48.34631 11.77501 1466 ft 7 kts 90°
2026-05-07 13:42 48.34643 11.77593 1461 ft 11 kts 78°
2026-05-07 13:42 48.34657 11.77721 1466 ft 14 kts 86°
2026-05-07 13:43 48.34663 11.77881 1466 ft 17 kts 87°
2026-05-07 13:43 48.34679 11.78114 1466 ft 30 kts 83°
2026-05-07 13:43 48.34704 11.78444 1466 ft 33 kts 84°
2026-05-07 13:43 48.34731 11.78798 1466 ft 35 kts 83°
2026-05-07 13:44 48.34758 11.79164 1467 ft 36 kts 84°
2026-05-07 13:44 48.34783 11.79478 1459 ft 19 kts 84°
2026-05-07 13:44 48.34843 11.79560 1465 ft 14 kts 355°
2026-05-07 13:44 48.34942 11.79543 1467 ft 15 kts 353°
2026-05-07 13:45 48.35053 11.79523 1465 ft 17 kts 354°
2026-05-07 13:45 48.35176 11.79502 1467 ft 18 kts 353°
2026-05-07 13:45 48.35307 11.79479 1458 ft 20 kts 353°
2026-05-07 13:45 48.35434 11.79457 1464 ft 12 kts 353°
2026-05-07 13:46 48.35493 11.79424 1465 ft 9 kts 291°
2026-05-07 13:46 48.35490 11.79328 1464 ft 9 kts 263°
2026-05-07 13:46 48.35487 11.79284 1457 ft 0 kts 263°